sat.trackr.live / text

‹ back to catalog

ONEWEB-0617

NORAD 55158 · 2023-004U

PAYLOAD ACTIVE UNKNOWN

§ Identity

Operator
Country
UK
Launch date
2023-01-10
Launch site
AFETR
Launch vehicle
Mass (kg)
RCS (m²)

Purposes: comms

External: N2YO · Heavens-Above · Gunter

§ Orbital elements

Epoch: 2026-05-25T02:26:25.144224Z

Period
109.80 min
Inclination
87.8916°
Eccentricity
0.0002042
Mean motion
13.11418062 rev/d
Perigee alt
1,216.1 km
Apogee alt
1,219.2 km
Semi-major
7,595.8 km
B*
3.0348e-4
RAAN
25.6609°
Arg perigee
92.5349°
Mean anomaly
267.6012°
Rev number
16,283

§ Raw data

ONEWEB-06171 55158U 23004U   26145.10167991  .00000120  00000+0  30348-3 0  99982 55158  87.8916  25.6609 0002042  92.5349 267.6012 13.11418062162834

JSON: /api/v1/satellites/55158 · /tle

For live sub-satellite position, see the globe view (requires WebGL).

§ Visibility from observer

Set your observer location to see the next 7 days of passes ≥ 10°. The values pass through the URL so the page stays shareable.

No JS? Fill the form by hand. The geolocation button needs JavaScript.